THY1990 LTFM-LTAW

Flight info

Callsign THY1990
Flight time 1h 4m
Altitude 37000
Route LTFM SID VICEN UT380 ASMAP UL333 LATGA UT363 GURBU UA4 HAKCE STAR LTAW
Aircraft B738/M-VGDW/C

Departure

Time 2026-05-07 07:43
Airport İstanbul Airport (LTFM)

Arrival

Time 2026-05-07 08:48
Airport Tokat Airport (LTAW)
Time Latitude Longitude Altitude Speed Heading
2026-05-07 07:39 41.25689 28.73606 333 ft 0 kts 359°
2026-05-07 07:40 41.25680 28.73606 333 ft 2 kts 359°
2026-05-07 07:40 41.25662 28.73606 333 ft 3 kts 359°
2026-05-07 07:40 41.25652 28.73606 333 ft 0 kts 359°
2026-05-07 07:40 41.25653 28.73606 333 ft 2 kts 359°
2026-05-07 07:41 41.25687 28.73580 333 ft 10 kts 325°
2026-05-07 07:41 41.25759 28.73512 333 ft 17 kts 325°
2026-05-07 07:41 41.25872 28.73407 333 ft 23 kts 325°
2026-05-07 07:41 41.26014 28.73289 333 ft 24 kts 330°
2026-05-07 07:42 41.26163 28.73175 333 ft 25 kts 320°
2026-05-07 07:42 41.26216 28.72989 333 ft 18 kts 271°
2026-05-07 07:42 41.26218 28.72843 333 ft 14 kts 274°
2026-05-07 07:42 41.26283 28.72778 333 ft 29 kts 354°
2026-05-07 07:43 41.26814 28.72766 333 ft 120 kts 359°
2026-05-07 07:43 41.27884 28.72754 497 ft 178 kts
2026-05-07 07:43 41.29107 28.72840 995 ft 174 kts
2026-05-07 07:43 41.30306 28.72816 1545 ft 171 kts 356°
2026-05-07 07:44 41.31497 28.72768 2175 ft 176 kts 359°
2026-05-07 07:44 41.32779 28.72727 2844 ft 191 kts 358°
2026-05-07 07:44 41.34156 28.72679 3502 ft 205 kts 358°
2026-05-07 07:44 41.35633 28.72607 4103 ft 218 kts 354°
2026-05-07 07:45 41.37164 28.72503 4726 ft 225 kts
2026-05-07 07:45 41.38625 28.73337 5358 ft 236 kts 34°
2026-05-07 07:45 41.39668 28.75075 5986 ft 249 kts 62°
2026-05-07 07:45 41.40036 28.77341 6605 ft 261 kts 91°
2026-05-07 07:46 41.39623 28.79675 7232 ft 261 kts 118°
2026-05-07 07:46 41.38497 28.81529 7860 ft 257 kts 146°
2026-05-07 07:46 41.36935 28.82621 8497 ft 254 kts 165°
2026-05-07 07:46 41.35225 28.83174 9129 ft 253 kts 172°
2026-05-07 07:47 41.33487 28.83684 9759 ft 256 kts 172°
2026-05-07 07:47 41.31725 28.84193 10391 ft 264 kts 172°
2026-05-07 07:47 41.29887 28.84722 11028 ft 277 kts 172°
2026-05-07 07:47 41.27961 28.85276 11665 ft 289 kts 172°
2026-05-07 07:48 41.25954 28.85853 12300 ft 301 kts 172°
2026-05-07 07:48 41.23874 28.86449 12932 ft 310 kts 172°
2026-05-07 07:48 41.21768 28.87052 13552 ft 317 kts 172°
2026-05-07 07:48 41.19598 28.87673 14179 ft 322 kts 172°
2026-05-07 07:49 41.17391 28.88304 14807 ft 325 kts 172°
2026-05-07 07:49 41.15168 28.88940 15434 ft 328 kts 172°
2026-05-07 07:49 41.12924 28.89580 16061 ft 331 kts 172°
2026-05-07 07:49 41.10661 28.90226 16688 ft 334 kts 172°
2026-05-07 07:50 41.08373 28.90879 17315 ft 338 kts 172°
2026-05-07 07:50 41.06106 28.91525 17930 ft 341 kts 172°
2026-05-07 07:50 41.03789 28.92282 18553 ft 347 kts 165°
2026-05-07 07:50 41.01581 28.93671 19182 ft 356 kts 151°
2026-05-07 07:51 40.99585 28.95660 19811 ft 363 kts 142°
2026-05-07 07:51 40.97753 28.97982 20438 ft 367 kts 137°
2026-05-07 07:51 40.96029 29.00319 21041 ft 370 kts 137°
2026-05-07 07:51 40.94180 29.02793 21677 ft 374 kts 137°
2026-05-07 07:52 40.92310 29.05259 22310 ft 377 kts 138°
2026-05-07 07:52 40.90438 29.07704 22936 ft 380 kts 138°
2026-05-07 07:52 40.88546 29.10163 23564 ft 382 kts 138°
2026-05-07 07:52 40.86661 29.12649 24187 ft 385 kts 135°
2026-05-07 07:53 40.85061 29.15494 24812 ft 389 kts 122°
2026-05-07 07:53 40.83899 29.18729 25440 ft 391 kts 112°
2026-05-07 07:53 40.83074 29.22147 26065 ft 392 kts 106°
2026-05-07 07:53 40.82386 29.25626 26690 ft 392 kts 105°
2026-05-07 07:54 40.81711 29.29110 27288 ft 392 kts 105°
2026-05-07 07:54 40.81023 29.32635 27560 ft 402 kts 105°
2026-05-07 07:54 40.80318 29.36203 27812 ft 411 kts 105°
2026-05-07 07:54 40.79583 29.39894 28065 ft 420 kts 105°
2026-05-07 07:55 40.78830 29.43661 28318 ft 428 kts 105°
2026-05-07 07:55 40.78059 29.47504 28570 ft 435 kts 105°
2026-05-07 07:55 40.77281 29.51382 28821 ft 440 kts 105°
2026-05-07 07:55 40.76500 29.55295 29072 ft 441 kts 105°
2026-05-07 07:56 40.75714 29.59211 29323 ft 442 kts 105°
2026-05-07 07:56 40.74923 29.63130 29573 ft 443 kts 105°
2026-05-07 07:56 40.74147 29.67071 29823 ft 445 kts 103°
2026-05-07 07:56 40.73585 29.71113 30074 ft 448 kts 98°
2026-05-07 07:57 40.73339 29.75217 30326 ft 450 kts 92°
2026-05-07 07:57 40.73267 29.79344 30577 ft 451 kts 91°
2026-05-07 07:57 40.73213 29.83439 30824 ft 453 kts 91°
2026-05-07 07:57 40.73144 29.87654 31079 ft 455 kts 91°
2026-05-07 07:58 40.73068 29.91826 31329 ft 456 kts 91°
2026-05-07 07:58 40.72987 29.95961 31576 ft 458 kts 91°
2026-05-07 07:58 40.72902 30.00173 31828 ft 460 kts 92°
2026-05-07 07:58 40.72642 30.04429 32080 ft 461 kts 98°
2026-05-07 07:59 40.72081 30.08594 32330 ft 463 kts 104°
2026-05-07 07:59 40.71233 30.12637 32579 ft 464 kts 109°
2026-05-07 07:59 40.70175 30.16664 32830 ft 465 kts 111°
2026-05-07 07:59 40.69087 30.20679 33080 ft 467 kts 110°
2026-05-07 08:00 40.68000 30.24743 33333 ft 469 kts 110°
2026-05-07 08:00 40.67032 30.28868 33583 ft 471 kts 105°
2026-05-07 08:00 40.66360 30.33108 33834 ft 474 kts 99°
2026-05-07 08:00 40.65953 30.37421 34086 ft 475 kts 96°
2026-05-07 08:01 40.65618 30.41715 34333 ft 477 kts 96°
2026-05-07 08:01 40.65268 30.46063 34584 ft 479 kts 96°
2026-05-07 08:01 40.64906 30.50424 34834 ft 481 kts 96°
2026-05-07 08:01 40.64537 30.54805 35084 ft 482 kts 97°
2026-05-07 08:02 40.64162 30.59212 35336 ft 483 kts 97°
2026-05-07 08:02 40.63786 30.63611 35585 ft 484 kts 97°
2026-05-07 08:02 40.63405 30.68021 35835 ft 485 kts 97°
2026-05-07 08:02 40.62837 30.72393 36085 ft 485 kts 103°
2026-05-07 08:03 40.61997 30.76703 36336 ft 485 kts 106°
2026-05-07 08:03 40.61082 30.80985 36587 ft 485 kts 106°
2026-05-07 08:03 40.60186 30.85271 36837 ft 485 kts 106°
2026-05-07 08:03 40.59294 30.89499 36985 ft 487 kts 106°
2026-05-07 08:04 40.58377 30.93806 36991 ft 490 kts 106°
2026-05-07 08:04 40.56519 31.02490 36997 ft 495 kts 107°
2026-05-07 08:05 40.54642 31.11221 36997 ft 495 kts 107°
2026-05-07 08:05 40.52769 31.19916 36997 ft 494 kts 107°
2026-05-07 08:06 40.50900 31.28624 36997 ft 495 kts 107°
2026-05-07 08:06 40.49013 31.37305 36997 ft 495 kts 107°
2026-05-07 08:07 40.47126 31.45946 36997 ft 494 kts 107°
2026-05-07 08:07 40.45227 31.54632 36997 ft 495 kts 107°
2026-05-07 08:08 40.43352 31.63322 36997 ft 495 kts 107°
2026-05-07 08:08 40.41447 31.71990 36997 ft 494 kts 107°
2026-05-07 08:09 40.39526 31.80659 36997 ft 494 kts 107°
2026-05-07 08:09 40.37596 31.89335 36997 ft 494 kts 107°
2026-05-07 08:10 40.35679 31.97934 36997 ft 494 kts 107°
2026-05-07 08:10 40.33732 32.06589 36997 ft 494 kts 107°
2026-05-07 08:11 40.31898 32.15275 36997 ft 495 kts 105°
2026-05-07 08:11 40.30186 32.24024 36997 ft 495 kts 105°
2026-05-07 08:12 40.28458 32.32745 36997 ft 495 kts 105°
2026-05-07 08:12 40.26716 32.41468 36997 ft 495 kts 105°
2026-05-07 08:13 40.24970 32.50165 36996 ft 490 kts 105°
2026-05-07 08:13 40.23287 32.58655 36996 ft 481 kts 105°
2026-05-07 08:14 40.21625 32.67123 36997 ft 479 kts 105°
2026-05-07 08:14 40.20018 32.75606 36995 ft 480 kts 101°
2026-05-07 08:15 40.19373 32.84335 36997 ft 484 kts 93°
2026-05-07 08:15 40.19063 32.93126 36997 ft 484 kts 92°
2026-05-07 08:16 40.18752 33.01882 36997 ft 484 kts 93°
2026-05-07 08:16 40.18429 33.10674 36997 ft 484 kts 93°
2026-05-07 08:17 40.18099 33.19463 36997 ft 484 kts 93°
2026-05-07 08:17 40.17824 33.26779 36997 ft 484 kts 92°
2026-05-07 08:18 40.17523 33.35578 36997 ft 484 kts 93°
2026-05-07 08:18 40.17199 33.44380 36997 ft 484 kts 93°
2026-05-07 08:19 40.16862 33.53188 36997 ft 484 kts 93°
2026-05-07 08:19 40.16542 33.61973 36997 ft 484 kts 93°
2026-05-07 08:20 40.16189 33.70757 36997 ft 484 kts 93°
2026-05-07 08:20 40.15822 33.79500 36997 ft 484 kts 93°
2026-05-07 08:21 40.15449 33.88279 36997 ft 484 kts 93°
2026-05-07 08:21 40.15045 33.97071 36997 ft 484 kts 95°
2026-05-07 08:22 40.14152 34.05778 36797 ft 482 kts 99°
2026-05-07 08:22 40.13642 34.10107 36292 ft 480 kts 99°
2026-05-07 08:22 40.13146 34.14375 35798 ft 481 kts 99°
2026-05-07 08:22 40.12648 34.18712 35296 ft 479 kts 99°
2026-05-07 08:23 40.12160 34.22991 34796 ft 475 kts 99°
2026-05-07 08:23 40.11675 34.27255 34293 ft 471 kts 99°
2026-05-07 08:23 40.11197 34.31478 33791 ft 467 kts 99°
2026-05-07 08:23 40.10724 34.35654 33291 ft 464 kts 99°
2026-05-07 08:24 40.10254 34.39802 32791 ft 460 kts 98°
2026-05-07 08:24 40.09806 34.43936 32288 ft 457 kts 98°
2026-05-07 08:24 40.09361 34.48019 31788 ft 453 kts 98°
2026-05-07 08:24 40.08913 34.52092 31286 ft 450 kts 98°
2026-05-07 08:25 40.08467 34.56108 30786 ft 446 kts 98°
2026-05-07 08:25 40.08018 34.60119 30284 ft 445 kts 99°
2026-05-07 08:25 40.07558 34.64210 29787 ft 466 kts 99°
2026-05-07 08:25 40.07082 34.68419 29218 ft 481 kts 99°
2026-05-07 08:26 40.06091 34.77130 27965 ft 486 kts 99°
2026-05-07 08:26 40.05588 34.81519 27342 ft 493 kts 99°
2026-05-07 08:26 40.05076 34.85970 26716 ft 496 kts 99°
2026-05-07 08:27 40.04564 34.90414 26089 ft 494 kts 99°
2026-05-07 08:27 40.04053 34.94838 25462 ft 490 kts 99°
2026-05-07 08:27 40.03561 34.99229 24835 ft 486 kts 99°
2026-05-07 08:27 40.03069 35.03519 24216 ft 482 kts 99°
2026-05-07 08:28 40.02567 35.07819 23590 ft 477 kts 99°
2026-05-07 08:28 40.02065 35.12078 22965 ft 473 kts 99°
2026-05-07 08:28 40.01559 35.16342 22338 ft 476 kts 99°
2026-05-07 08:28 40.01049 35.20609 21822 ft 475 kts 99°
2026-05-07 08:29 40.00541 35.24854 21321 ft 472 kts 99°
2026-05-07 08:29 40.00034 35.29074 20821 ft 469 kts 99°
2026-05-07 08:29 39.99532 35.33264 20320 ft 466 kts 99°
2026-05-07 08:29 39.99032 35.37414 19819 ft 462 kts 99°
2026-05-07 08:30 39.98509 35.41555 19316 ft 459 kts 100°
2026-05-07 08:30 39.97989 35.45650 18816 ft 456 kts 100°
2026-05-07 08:30 39.97473 35.49703 18316 ft 453 kts 100°
2026-05-07 08:30 39.96966 35.53742 17838 ft 449 kts 99°
2026-05-07 08:31 39.96477 35.57752 17459 ft 446 kts 99°
2026-05-07 08:31 39.95985 35.61692 16976 ft 444 kts 100°
2026-05-07 08:31 39.95476 35.65696 16469 ft 441 kts 100°
2026-05-07 08:31 39.94978 35.69583 15973 ft 437 kts 100°
2026-05-07 08:32 39.94476 35.73475 15472 ft 434 kts 100°
2026-05-07 08:32 39.93977 35.77330 15113 ft 430 kts 100°
2026-05-07 08:32 39.93476 35.81183 15014 ft 430 kts 100°
2026-05-07 08:32 39.92975 35.85027 14691 ft 430 kts 100°
2026-05-07 08:33 39.92588 35.88875 14310 ft 427 kts 92°
2026-05-07 08:33 39.92919 35.92699 13933 ft 424 kts 75°
2026-05-07 08:33 39.94040 35.96216 13558 ft 419 kts 58°
2026-05-07 08:33 39.95819 35.99107 13186 ft 408 kts 41°
2026-05-07 08:34 39.98105 36.01174 12811 ft 393 kts 24°
2026-05-07 08:34 40.00610 36.02440 12427 ft 379 kts
2026-05-07 08:34 40.03180 36.02620 12057 ft 364 kts 352°
2026-05-07 08:34 40.05566 36.01812 11669 ft 348 kts 330°
2026-05-07 08:35 40.07359 35.99835 11408 ft 330 kts 303°
2026-05-07 08:35 40.08279 35.97208 11350 ft 312 kts 285°
2026-05-07 08:35 40.08803 35.94510 11297 ft 299 kts 284°
2026-05-07 08:35 40.09733 35.92199 11256 ft 290 kts 310°
2026-05-07 08:36 40.11416 35.90828 11224 ft 287 kts 339°
2026-05-07 08:36 40.13399 35.90756 11023 ft 292 kts
2026-05-07 08:36 40.15194 35.92001 10831 ft 295 kts 36°
2026-05-07 08:36 40.16669 35.93838 10579 ft 291 kts 42°
2026-05-07 08:37 40.18091 35.95703 10206 ft 287 kts 42°
2026-05-07 08:37 40.19492 35.97539 9830 ft 284 kts 40°
2026-05-07 08:37 40.21131 35.98845 9433 ft 272 kts 11°
2026-05-07 08:37 40.22942 35.98813 9053 ft 256 kts 337°
2026-05-07 08:38 40.24416 35.97627 8693 ft 246 kts 315°
2026-05-07 08:38 40.25655 35.96114 8321 ft 243 kts 313°
2026-05-07 08:38 40.26863 35.94582 7940 ft 239 kts 309°
2026-05-07 08:38 40.27534 35.92700 7546 ft 232 kts 275°
2026-05-07 08:39 40.27183 35.90687 7169 ft 231 kts 240°
2026-05-07 08:39 40.25941 35.89378 6793 ft 237 kts 204°
2026-05-07 08:39 40.24283 35.89314 6416 ft 247 kts 167°
2026-05-07 08:39 40.22874 35.90572 6090 ft 250 kts 128°
2026-05-07 08:40 40.22286 35.92627 6003 ft 235 kts 94°
2026-05-07 08:40 40.22385 35.94677 5987 ft 218 kts 79°
2026-05-07 08:40 40.22611 35.96581 5977 ft 210 kts 79°
2026-05-07 08:40 40.22835 35.98452 5988 ft 205 kts 79°
2026-05-07 08:41 40.23051 36.00247 6079 ft 194 kts 79°
2026-05-07 08:41 40.23256 36.01954 6118 ft 188 kts 79°
2026-05-07 08:41 40.23458 36.03635 6156 ft 188 kts 79°
2026-05-07 08:41 40.23662 36.05328 6118 ft 186 kts 79°
2026-05-07 08:42 40.23880 36.06950 6045 ft 177 kts 76°
2026-05-07 08:42 40.24153 36.08494 5992 ft 170 kts 71°
2026-05-07 08:42 40.24513 36.09950 5976 ft 166 kts 67°
2026-05-07 08:42 40.24900 36.11366 5979 ft 165 kts 66°
2026-05-07 08:43 40.25289 36.12786 5989 ft 166 kts 66°
2026-05-07 08:43 40.25677 36.14204 5996 ft 166 kts 66°
2026-05-07 08:43 40.26066 36.15626 5957 ft 166 kts 66°
2026-05-07 08:43 40.26457 36.17054 5714 ft 167 kts 66°
2026-05-07 08:44 40.26847 36.18474 5443 ft 164 kts 66°
2026-05-07 08:44 40.27226 36.19858 5185 ft 160 kts 66°
2026-05-07 08:44 40.27600 36.21221 4935 ft 157 kts 66°
2026-05-07 08:44 40.27966 36.22552 4693 ft 154 kts 67°
2026-05-07 08:45 40.28321 36.23847 4456 ft 151 kts 67°
2026-05-07 08:45 40.28674 36.25132 4221 ft 148 kts 68°
2026-05-07 08:45 40.29019 36.26387 3992 ft 145 kts 68°
2026-05-07 08:45 40.29357 36.27614 3768 ft 142 kts 69°
2026-05-07 08:46 40.29690 36.28827 3550 ft 141 kts 69°
2026-05-07 08:46 40.30023 36.30036 3331 ft 141 kts 70°
2026-05-07 08:46 40.30219 36.31295 3092 ft 141 kts 90°
2026-05-07 08:46 40.30013 36.32530 2895 ft 138 kts 109°
2026-05-07 08:47 40.29752 36.33696 2690 ft 134 kts 102°
2026-05-07 08:47 40.29662 36.34924 2446 ft 132 kts 87°
2026-05-07 08:47 40.30017 36.36030 2118 ft 136 kts 49°
2026-05-07 08:47 40.30706 36.36803 1948 ft 129 kts 40°
2026-05-07 08:48 40.31348 36.37549 1839 ft 100 kts 41°
2026-05-07 08:48 40.31615 36.37856 1839 ft 7 kts 41°
2026-05-07 08:48 40.31634 36.37913 1839 ft 8 kts 133°
2026-05-07 08:48 40.31603 36.37914 1839 ft 0 kts 201°
2026-05-07 08:52 40.30151 36.35841 1839 ft 0 kts 49°